This is the latest recevied weather packets stored in our database for station/object WV8BRW. If no packets are shown the sender has not sent any weather packets the latest 1 day(s).
| Time | Temp. | Humidity | Pressure | Rain* | Wind** | Luminosity | Snow |
|---|---|---|---|---|---|---|---|
| 1778063876 | 14.44° C | 99% | 1005.8 hPa | 3.05 mm | - | 0 W/m² | - |
| 1778062060 | 14.44° C | 99% | 1005.6 hPa | 0 mm | - | 0 W/m² | - |
| 1778061758 | 14.44° C | 99% | 1005.4 hPa | 0 mm | - | 0 W/m² | - |
| 1778061456 | 14.44° C | 99% | 1005.4 hPa | 0 mm | - | 0 W/m² | - |
| 1778060849 | 14.44° C | 99% | 1004.9 hPa | 1.78 mm | - | 0 W/m² | - |
| 1778060246 | 14.44° C | 99% | 1004.7 hPa | 0 mm | - | 0 W/m² | - |
| 1778059338 | 14.44° C | 99% | 1005 hPa | 6.1 mm | - | 0 W/m² | - |
| 1778058127 | 14.44° C | 99% | 1005 hPa | 11.94 mm | - | 0 W/m² | - |
| 1778057824 | 14.44° C | 99% | 1004.9 hPa | 12.7 mm | - | 0 W/m² | - |
| 1778057217 | 14.44° C | 99% | 1004.8 hPa | 3.05 mm | - | 0 W/m² | - |
| 1778056610 | 14.44° C | 99% | 1004.8 hPa | 1.78 mm | - | 0 W/m² | - |
| 1778056308 | 14.44° C | 99% | 1004.8 hPa | 0 mm | - | 0 W/m² | - |
| 1778055398 | 14.44° C | 99% | 1004.7 hPa | 1.27 mm | - | 0 W/m² | - |
| 1778052370 | 14.44° C | 99% | 1004.9 hPa | 1.27 mm | - | 0 W/m² | - |
| 1778052068 | 14.44° C | 99% | 1005 hPa | 0 mm | - | 0 W/m² | - |
| 1778051463 | 14.44° C | 99% | 1004.9 hPa | 0 mm | - | 0 W/m² | - |
| 1778051160 | 14.44° C | 99% | 1005 hPa | 0 mm | - | 0 W/m² | - |
| 1778050857 | 14.44° C | 99% | 1005.2 hPa | 0 mm | - | 0 W/m² | - |
| 1778049948 | 14.44° C | 99% | 1005.6 hPa | 3.05 mm | - | 0 W/m² | - |
| 1778049342 | 14.44° C | 99% | 1005.8 hPa | 0 mm | - | 0 W/m² | - |
| 1778049039 | 14.44° C | 99% | 1005.8 hPa | 1.27 mm | - | 0 W/m² | - |
| 1778048737 | 15° C | 99% | 1005.8 hPa | 4.32 mm | - | 0 W/m² | - |
| 1778048434 | 15° C | 99% | 1006.1 hPa | 4.83 mm | - | 0 W/m² | - |
| 1778047526 | 15° C | 97% | 1006.6 hPa | 1.27 mm | - | 0 W/m² | - |
| 1778046920 | 14.44° C | 99% | 1006.5 hPa | 0 mm | - | 0 W/m² | - |
* Rain latest hour (hover to see other rain measurements)
** Current wind speed in m/s (hover to see current wind gust speed)